Regional Weather Roundup
Issued by NWS

Home | Current Version | Previous Version | Graphics & Text | Print | Product List | Glossary On
Versions: 1 2 3 4 5 6 7 8 9 10 11 12 13 14 15 16 17 18 19 20 21 22 23 24 25 26 27 28 29 30 31 32 33 34 35 36 37 38 39 40 41 42 43 44 45 46 47 48 49 50
000
ASUS45 KABQ 150901
RWRNM
WEATHER ROUNDUP FOR NEW MEXICO
NATIONAL WEATHER SERVICE ALBUQUERQUE NM
300 AM MDT TUE APR 15 2014

NOTE: "FAIR" MEANS FEW OR NO CLOUDS BELOW 12,000 FEET AGL WITH NO
       SIGNIFICANT WEATHER OR OBSTRUCTIONS TO VISION.

      THIS PRODUCT IS RELEASED AS TWO VERSIONS.  ONE VERSION NEAR
      THE TOP OF THE HOUR CONTAINING PRELIMINARY DATA FROM ALBUQUERQUE
      AND OTHER STATIONS.  A FINAL VERSION WITH ADDITIONAL DATA IS
      ISSUED ABOUT 10 MINUTES AFTER THE HOUR.

NMZ501-503-504-510>518-151000-
NORTHWEST PLATEAU/NORTHCENTRAL MOUNTAINS

CITY           SKY/WX    TMP DP  RH WIND       PRES   REMARKS
FARMINGTON     CLEAR     32   9  38 W6        30.21S WCI  26
LOS ALAMOS     CLEAR     33  17  50 CALM      30.22S
SANTA FE       CLEAR     26  15  63 N5        30.20F WCI  20
TAOS           CLEAR     23  14  68 N3        30.23F
ANGEL FIRE     FAIR      31  15  50 SW3       30.22F

$$
NMZ402-403-502-505>509-151000-
WESTCENTRAL MOUNTAINS/SOUTHWEST MOUNTAINS

CITY           SKY/WX    TMP DP  RH WIND       PRES   REMARKS
GALLUP         CLEAR     20  -5  33 CALM      30.24F
SILVER CITY    CLEAR     32   9  37 NW6       30.26S WCI  26

$$
NMZ407-409-411-412-151000-
SOUTHERN DESERTS

CITY           SKY/WX    TMP DP  RH WIND       PRES   REMARKS
DEMING         CLEAR     39  15  37 NE10      30.22F WCI  32
LAS CRUCES     CLEAR     40  14  34 SE12      30.25S WCI  34
HOLLOMAN AFB   PTCLDY    37  16  41 S3        30.25F
T OR C         CLEAR     42  16  34 CALM      30.22F

$$
NMZ519>523-151000-
CENTRAL VALLEYS/CENTRAL HIGHLANDS

CITY           SKY/WX    TMP DP  RH WIND       PRES   REMARKS
ALBUQUERQUE    CLEAR     42  15  33 E5        30.22F
DOUBLE EAGLE   PTCLDY    31   1  28 CALM      30.22F
CLINES CORNERS CLEAR     29  17  61 W14       30.19F WCI  18
BELEN          FAIR      37  16  43 E6        30.22F WCI  32
SOCORRO        NOT AVBL

$$
NMZ524>526-539-540-151000-
SOUTHCENTRAL MOUNTAINS

CITY           SKY/WX    TMP DP  RH WIND       PRES   REMARKS
RUIDOSO        NOT AVBL

$$
NMZ527>531-151000-
NORTHEAST HIGHLANDS/NORTHEAST PLAINS

CITY           SKY/WX    TMP DP  RH WIND       PRES   REMARKS
LAS VEGAS      CLEAR     23  18  81 SW10      30.19F WCI  12
RATON          CLEAR     23  19  85 N6        30.18F WCI  16
CLAYTON        CLEAR     27  18  69 SW9       30.20F WCI  18

$$
NMZ532>537-151000-
EASTCENTRAL PLAINS

CITY           SKY/WX    TMP DP  RH WIND       PRES   REMARKS
TUCUMCARI      CLEAR     28  20  71 SW5       30.24F WCI  23
CANNON AFB     CLEAR     28  14  56 SW3       30.27F
CLOVIS AIRPORT CLEAR     25  12  58 SW8       30.29F WCI  16

$$
NMZ028-029-538-151000-
SOUTHEAST PLAINS

CITY           SKY/WX    TMP DP  RH WIND       PRES   REMARKS
ROSWELL        CLEAR     30  13  49 SW6       30.27F WCI  24
CARLSBAD       CLEAR     30  13  49 S7        30.30F WCI  23
HOBBS          PTCLDY    28  10  47 W6        30.31S WCI  22


$$



USA.gov is the U.S. government's official web portal to all federal, state and local government web resources and services.